Miscellaneous Local Product
Issued by NWS North Platte, NE

Home | Current Version | Previous Version | Graphics & Text | Print | Product List | Glossary On
Versions: 1 2 3 4 5 6 7 8 9 10 11 12 13 14 15 16 17 18 19 20 21 22 23 24 25 26 27 28 29 30 31 32 33 34 35 36 37 38 39 40 41 42 43 44 45 46 47 48 49 50
000
AXUS43 KLBF 290310
MISLBF


WESTERN AND NORTH CENTRAL NEBRASKA HOURLY WEATHER ROUNDUP
NATIONAL WEATHER SERVICE NORTH PLATTE NE
1000 PM CDT SAT MAR 28 2015

***STATIONS NOT REPORTING VARIABLES SUCH AS SKY/WEATHER OR
PRESSURE ARE PROVIDED BY THE NEBRASKA DEPARTMENT OF
ROADS...RAWS...AND APRS NETWORKS...AND ARE NOT UNDER
NATIONAL WEATHER SERVICE QUALITY CONTROL***

...OBSERVATIONS IN AND NEAR THE EASTERN PANHANDLE OF NEBRASKA...

CITY           SKY/WX    TMP DP  RH WIND       PRES   REMARKS
PINE RIDGE     MOCLDY    66  36  32 N26G37    29.72R
CHADRON        PTCLDY    67  31  26 W21G26    29.72R
ALLIANCE       PTCLDY    66  24  20 W14       29.75R
SIDNEY         MOCLDY    69  24  18 W16       29.84R
CRESCENT LAKE    N/A     69  25  19 SW12        N/A
BIG SPRINGS      N/A     62  27  26 SW3         N/A
$$

...OBSERVATIONS IN NORTH CENTRAL NEBRASKA...

CITY           SKY/WX    TMP DP  RH WIND       PRES   REMARKS
VALENTINE      PTCLDY    65  36  34 S33G41    29.61F
THEDFORD       PTCLDY    62  36  38 S22G32    29.73F
AINSWORTH      CLEAR     60  35  39 S26G35    29.68F
O`NEILL        CLEAR     52  36  54 S21G26    29.77F
ORD            CLEAR     53  33  46 SE16      29.81F
BROKEN BOW     CLEAR     57  36  45 SE12      29.81S
SPRINGVIEW       N/A     59  37  44 S18G35      N/A
SARGENT          N/A     53  35  51 SE7         N/A
COMSTOCK         N/A     56  36  45 S15         N/A
EWING            N/A     48  37  66 S12G21      N/A
$$

...OBSERVATIONS IN SOUTHWEST NEBRASKA AND FAR NORTHEAST COLORADO...

CITY           SKY/WX    TMP DP  RH WIND       PRES   REMARKS
WRAY           FAIR      64  26  23 SW8       29.84R
IMPERIAL         N/A     68  22  17 S10       29.78R
OGALLALA       MOCLDY    60  29  30 W8        29.76R
NORTH PLATTE   PTCLDY    63  36  36 SE14G20   29.77F
MCCOOK         PTCLDY    65  36  34 S16       29.80R
LEXINGTON      CLEAR     57  37  46 SE17      29.81F
PAXTON           N/A     67  31  26 S6          N/A
BRADY            N/A     59  37  44 N3          N/A
GOTHENBURG       N/A     60  34  38 SE10        N/A
CALLAWAY         N/A     57  38  49 S21         N/A
$$

...NORTH PLATTE AREA...

CITY           SKY/WX    TMP DP  RH WIND       PRES   REMARKS
AIRPORT        PTCLDY    63  36  36 SE14G20   29.77F
DOWNTOWN         N/A     64  38  38 S13G26      N/A
$$

...SOME WEATHER OBSERVATIONS FROM AROUND THE REGION...

CITY           SKY/WX    TMP DP  RH WIND       PRES   REMARKS
DENVER         PTCLDY    65  24  21 W12       29.97R
LARAMIE        PTCLDY    53  16  23 W22G31    30.05R
CHEYENNE       CLEAR     60  25  26 W22G30    29.96R
SCOTTSBLUFF    PTCLDY    71  22  15 W18       29.79R
RAPID CITY     PTCLDY    59  37  44 NW39G49   29.73R
PIERRE         PTCLDY    56  35  45 SE23G30   29.49F
WINNER         FAIR      62  33  33 S38G49    29.57F
SIOUX FALLS    CLEAR     45  28  51 S18       29.83F
OMAHA          CLEAR     46  32  58 S21       30.01S
GRAND ISLAND   CLEAR     50  34  54 SE17G25   29.88F
KANSAS CITY    CLEAR     45  31  58 SE16      30.11S
WICHITA        CLEAR     60  40  47 SE14      30.01R
HAYS           CLEAR     57  37  47 SE14      29.92R
LIBERAL        CLEAR     64  34  32 E15       29.95R
GOODLAND       CLEAR     65  27  23 S15       29.87R
$$



USA.gov is the U.S. government's official web portal to all federal, state and local government web resources and services.